Location: Eurasberg
(48.3353°N, 11.0839°E)
Time: 08:30:12
(UTC+00:00)

MOS 1 Rocket - Pass Details

Date: 18 January 2026
Orbit: 608 x 815 km, 97.4° (Epoch: 17 February)

Event Time Altitude Azimuth Distance (km) Brightness Sun altitude
Rises 05:27:57 0° 16° (NNE) 3,022 6.6 -14.9°
Reaches altitude 10° 05:30:17 10° 21° (NNE) 2,074 5.8 -14.5°
Maximum altitude 05:34:42 55° 99° (E) 766 3.9 -13.8°
Drops below altitude 10° 05:38:55 10° 178° (S) 1,976 5.9 -13.1°
Sets 05:41:05 0° 183° (S) 2,864 6.7 -12.8°
